sat.trackr.live / text

‹ back to catalog

STARLINK-3819

NORAD 52349 · 2022-045U

PAYLOAD ACTIVE UNKNOWN

§ Identity

Operator
Country
US
Launch date
2022-04-29
Launch site
AFETR
Launch vehicle
Mass (kg)
RCS (m²)

Purposes: comms

External: N2YO · Heavens-Above · Gunter

§ Orbital elements

Epoch: 2026-05-25T05:14:19.971744Z

Period
95.44 min
Inclination
53.2123°
Eccentricity
0.0001444
Mean motion
15.08840512 rev/d
Perigee alt
538.7 km
Apogee alt
540.7 km
Semi-major
6,917.9 km
B*
-3.0930e-5
RAAN
215.5701°
Arg perigee
96.2194°
Mean anomaly
263.8962°
Rev number
22,733

§ Raw data

STARLINK-38191 52349U 22045U   26145.21828671 -.00000780  00000+0 -30930-4 0  99942 52349  53.2123 215.5701 0001444  96.2194 263.8962 15.08840512227333

JSON: /api/v1/satellites/52349 · /tle

For live sub-satellite position, see the globe view (requires WebGL).

§ Visibility from observer

Set your observer location to see the next 7 days of passes ≥ 10°. The values pass through the URL so the page stays shareable.

No JS? Fill the form by hand. The geolocation button needs JavaScript.